Location: Chacón
(10.5789°N, 66.9317°W)
Time: 22:40:03
(UTC+00:00)

BREEZE-M DEB (TANK) - Pass Details

Date: 07 August 2024
Orbit: 331 x 16054 km, 49.4° (Epoch: 16 September)

Event Time Altitude Azimuth Distance (km) Brightness Sun altitude
Rises 22:09:45 0° 214° (SSW) 20,759 10.5 8.6°
Reaches altitude 10° 22:41:12 10° 213° (SSW) 20,444 10.5 1.2°
Maximum altitude 00:35:50 69° 300° (WNW) 5,231 7.2 -25.4°
Drops below altitude 10° 00:50:58 10° 26° (NNE) 4,518 6.9 -28.7°
Sets 00:53:01 0° 30° (NNE) 4,946 7.1 -29.2°
